Voltar ao catálogo

FENGYUN 1C DEB

LostSSO
NORAD 31840·DEBRIS·🇨🇳 China

Lançado May 10, 1999 de Taiyuan Satellite Launch Center

Loading…

Próximas Passagens (próximas 24 horas)

TLE

ObsoletoSource: Space-Track

Época: Jan 21, 2019, 07:14 UTC

1 31840U 99025CJE 19021.30176574 +.00000048 +00000-0 +66975-4 0  9996
2 31840 099.0991 054.0785 0096866 111.9418 249.3717 13.93009813600987

Acompanhe FENGYUN 1C DEB em tempo real com AllMySat

Download on the App Store